{"data":{"norad_id":62242,"intl_designator":"2024-232F","name":"QIANFAN-41","alt_names":[],"object_type":"PAYLOAD","status":"ACTIVE","operator":null,"country":"PRC","launch_date":"2024-12-05","launch_site_code":"TAISC","launch_vehicle":null,"mission":null,"orbit_class":"UNKNOWN","rcs_meters":null,"size_class":null,"mass_kg":null,"dimensions":null,"purposes":[],"wikipedia_slug":null,"has_3d_model":false,"image_url":null,"decayed_at":null,"tle_current":{"epoch":"2026-05-25T01:43:30.196992Z","epoch_age_seconds":69678,"freshness":"FRESH","line1":"1 62242U 24232F   26145.07187728  .00000095  00000+0  12881-3 0  9993","line2":"2 62242  89.0099  24.7791 0015981  79.4387 280.8563 13.51005633121301","mean_motion":13.51005633,"eccentricity":0.0015981,"inclination_deg":89.0099,"raan_deg":24.7791,"arg_perigee_deg":79.4387,"mean_anomaly_deg":280.8563,"bstar":0.00012881,"rev_number":12130,"period_min":106.58726838928,"perigee_km":1056.66031801,"apogee_km":1080.4614537929,"semimajor_km":7446.6978859015,"source":"CELESTRAK","updated_at":"2026-05-25T13:38:02.866281Z"}}}